Weather History for Reading, PA

Change the Weather History Date:

Tuesday, April 8, 2014

  Actual Average Record
Temperature  
Mean Temperature 52 °F 49 °F  
Max Temperature 62 °F 60 °F 88 °F (1929)
Min Temperature 41 °F 39 °F 20 °F (1982)
Degree Days  
Heating Degree Days 13 16  
Month to date heating degree days 140 137  
Since 1 July heating degree days 5367 4922  
Cooling Degree Days 0 0  
Month to date cooling degree days 0 0  
Year to date cooling degree days 0 0  
Growing Degree Days 3 (Base 50)    
Moisture  
Dew Point 45 °F    
Average Humidity 71    
Maximum Humidity 100    
Minimum Humidity 42    
Precipitation  
Precipitation 0.06 in 0.13 in 1.74 in (1902)
Month to date precipitation 0.84 1.07  
Year to date precipitation 9.69 10.08  
Sea Level Pressure  
Sea Level Pressure 29.54 in    
Wind  
Wind Speed 11 mph (West)    
Max Wind Speed 30 mph    
Max Gust Speed 38 mph    
Visibility 8 miles    
Events Rain , Thunderstorm    
T = Trace of Precipitation, MM = Missing Value Source: NWS Daily Summary

Daily Weather History Graph

Daily Weather History Graph

Search for Another Location

Airport:

Trip Planner

Search our weather history database for the weather conditions in past years. The results will help you decide how hot, cold, wet, or windy it might be!

Date:

Astronomy

Apr. 08, 2014 Rise Set
Actual Time 6:36 AM EDT 7:35 PM EDT
Civil Twilight 6:08 AM EDT 8:03 PM EDT
Nautical Twilight 5:35 AM EDT 8:36 PM EDT
Astronomical Twilight 5:01 AM EDT 9:11 PM EDT
Moon 1:26 PM EDT (4/8) 2:48 AM EDT (4/8)
Length of Visible Light 13h 54m
Length of Day
12h 59m
Waxing Gibbous, 62% of the Moon is Illuminated
Apr 8
Waxing Gibbous
Apr 15
Full
Apr 22
Last Quarter
Apr 29
New
May 6
First Quarter

Hourly Weather History & Observations

Time (EDT) Temp. Windchill Dew Point Humidity Pressure Visibility Wind Dir Wind Speed Gust Speed Precip Events Conditions
12:54 AM 48.9 °F - 46.9 °F 93% 29.61 in 8.0 mi Calm Calm - 0.01 in   Overcast
1:11 AM 48.9 °F - 46.9 °F 93% 29.58 in 5.0 mi SSE 5.8 mph - N/A   Overcast
1:54 AM 48.9 °F - 48.0 °F 97% 29.57 in 6.0 mi Calm Calm - 0.02 in Rain , Thunderstorm Light Thunderstorms and Rain
2:11 AM 50.0 °F - 48.0 °F 93% 29.54 in 6.0 mi Calm Calm - 0.02 in Rain Light Rain
2:38 AM 50.0 °F - 48.0 °F 93% 29.53 in 6.0 mi Calm Calm - 0.03 in Rain Light Rain
2:54 AM 50.0 °F - 48.0 °F 93% 29.54 in 4.0 mi Calm Calm - 0.03 in Rain Light Rain
3:54 AM 54.0 °F - 51.1 °F 90% 29.51 in 9.0 mi Variable 4.6 mph - 0.01 in   Overcast
4:03 AM 54.0 °F - 52.0 °F 93% 29.49 in 10.0 mi South 4.6 mph - N/A   Overcast
4:31 AM 55.0 °F - 52.0 °F 89% 29.48 in 10.0 mi SW 9.2 mph - N/A   Overcast
4:54 AM 55.0 °F - 52.0 °F 89% 29.49 in 10.0 mi SW 5.8 mph - N/A   Overcast
5:54 AM 55.0 °F - 52.0 °F 89% 29.47 in 7.0 mi Calm Calm - N/A   Overcast
6:51 AM 53.6 °F - 53.6 °F 100% 29.45 in 2.0 mi WSW 4.6 mph - N/A   Overcast
6:54 AM 54.0 °F - 53.1 °F 97% 29.47 in 2.0 mi SW 6.9 mph - N/A   Overcast
7:01 AM 54.0 °F - 52.0 °F 93% 29.45 in 1.0 mi WSW 8.1 mph - N/A   Overcast
8:54 AM 52.0 °F - 50.0 °F 93% 29.47 in 2.5 mi Calm Calm - N/A   Overcast
9:27 AM 55.0 °F - 51.1 °F 86% 29.46 in 2.5 mi SW 9.2 mph - N/A   Mostly Cloudy
9:41 AM 55.9 °F - 52.0 °F 87% 29.47 in 2.5 mi SW 12.7 mph - N/A   Mostly Cloudy
9:54 AM 55.9 °F - 51.1 °F 84% 29.49 in 6.0 mi WSW 13.8 mph 19.6 mph N/A   Mostly Cloudy
10:04 AM 57.0 °F - 51.1 °F 81% 29.47 in 10.0 mi WSW 13.8 mph - N/A   Overcast
10:54 AM 59.0 °F - 46.9 °F 64% 29.49 in 10.0 mi West 17.3 mph 24.2 mph N/A   Mostly Cloudy
11:54 AM 61.0 °F - 42.1 °F 50% 29.49 in 10.0 mi West 17.3 mph 32.2 mph N/A   Mostly Cloudy
12:54 PM 59.0 °F - 39.0 °F 48% 29.50 in 10.0 mi West 19.6 mph 31.1 mph N/A   Overcast
1:54 PM 61.0 °F - 37.9 °F 42% 29.51 in 10.0 mi West 25.3 mph 33.4 mph N/A   Mostly Cloudy
2:54 PM 59.0 °F - 37.0 °F 44% 29.54 in 10.0 mi WNW 26.5 mph 38.0 mph N/A   Partly Cloudy
3:54 PM 57.9 °F - 36.0 °F 44% 29.56 in 10.0 mi West 19.6 mph 27.6 mph N/A   Mostly Cloudy
4:54 PM 57.9 °F - 36.0 °F 44% 29.56 in 10.0 mi WNW 24.2 mph 33.4 mph N/A   Scattered Clouds
5:54 PM 57.0 °F - 36.0 °F 45% 29.59 in 10.0 mi WNW 17.3 mph 27.6 mph N/A   Scattered Clouds
6:54 PM 55.9 °F - 35.1 °F 45% 29.62 in 10.0 mi WNW 19.6 mph 26.5 mph N/A   Partly Cloudy
7:54 PM 53.1 °F - 35.1 °F 50% 29.65 in 10.0 mi WNW 13.8 mph - N/A   Clear
8:54 PM 51.1 °F - 35.1 °F 54% 29.67 in 10.0 mi NW 11.5 mph - N/A   Clear
9:54 PM 48.0 °F - 34.0 °F 58% 29.69 in 10.0 mi NNW 6.9 mph - N/A   Clear
10:54 PM 45.0 °F 42.6 °F 33.1 °F 63% 29.67 in 10.0 mi NNW 4.6 mph - N/A   Clear
11:54 PM 43.0 °F 41.3 °F 34.0 °F 71% 29.68 in 10.0 mi SW 3.5 mph - N/A   Clear